| time (UTC) | temp F | wind direction | speed MPH | gust MPH | rain 1hr in | rain 24hr in | rain mn in | humidity % | barometer mb |
| 20260507003035 | 70 | 238 | 6.0 | 13.0 | 0.00 | 0.00 | 0.00 | 17 | 1009.9 |
| 20260507001534 | 72 | 185 | 5.0 | 11.0 | 0.00 | 0.00 | 0.00 | 17 | 1009.8 |
| 20260507000031 | 71 | 286 | 6.0 | 14.0 | 0.00 | 0.00 | 0.00 | 17 | 1009.7 |
| 20260506234531 | 72 | 272 | 4.0 | 8.0 | 0.00 | 0.00 | 0.00 | 17 | 1009.8 |
| 20260506233028 | 72 | 259 | 6.0 | 15.0 | 0.00 | 0.00 | 0.00 | 17 | 1009.7 |
| 20260506231526 | 73 | 217 | 4.0 | 14.0 | 0.00 | 0.00 | 0.00 | 18 | 1009.9 |
| 20260506230027 | 72 | 193 | 5.0 | 11.0 | 0.00 | 0.00 | 0.00 | 17 | 1009.8 |
| 20260506224521 | 72 | 274 | 5.0 | 13.0 | 0.00 | 0.00 | 0.00 | 17 | 1010.1 |
| 20260506223017 | 72 | 229 | 4.0 | 12.0 | 0.00 | 0.00 | 0.00 | 17 | 1010.3 |
| 20260506221514 | 72 | 237 | 5.0 | 12.0 | 0.00 | 0.00 | 0.00 | 18 | 1010.6 |
| 20260506220016 | 72 | 143 | 1.0 | 10.0 | 0.00 | 0.00 | 0.00 | 18 | 1010.7 |
| 20260506214509 | 73 | 282 | 4.0 | 10.0 | 0.00 | 0.00 | 0.00 | 18 | 1010.9 |
| 20260506213005 | 72 | 292 | 4.0 | 13.0 | 0.00 | 0.00 | 0.00 | 19 | 1011.0 |
| 20260506211601 | 72 | 267 | 4.0 | 9.0 | 0.00 | 0.00 | 0.00 | 19 | 1011.5 |
| 20260506210105 | 70 | 304 | 4.0 | 11.0 | 0.00 | 0.00 | 0.00 | 20 | 1011.5 |
| 20260506204604 | 70 | 288 | 1.0 | 4.0 | 0.00 | 0.00 | 0.00 | 20 | 1011.6 |
| 20260506203048 | 70 | 292 | 2.0 | 8.0 | 0.00 | 0.00 | 0.00 | 21 | 1011.8 |
| 20260506201548 | 69 | 73 | 3.0 | 7.0 | 0.00 | 0.00 | 0.00 | 21 | 1012.0 |
| 20260506200039 | 69 | 44 | 1.0 | 9.0 | 0.00 | 0.00 | 0.00 | 21 | 1012.1 |
| 20260506194533 | 68 | 353 | 2.0 | 8.0 | 0.00 | 0.00 | 0.00 | 22 | 1012.3 |
| 20260506193027 | 68 | 238 | 1.0 | 9.0 | 0.00 | 0.00 | 0.00 | 23 | 1012.5 |
| 20260506191523 | 66 | 32 | 5.0 | 12.0 | 0.00 | 0.00 | 0.00 | 23 | 1012.7 |
| 20260506190027 | 66 | 306 | 2.0 | 12.0 | 0.00 | 0.00 | 0.00 | 23 | 1012.9 |
| 20260506184521 | 66 | 323 | 3.0 | 9.0 | 0.00 | 0.00 | 0.00 | 24 | 1012.9 |
| 20260506183016 | 64 | 303 | 1.0 | 9.0 | 0.00 | 0.00 | 0.00 | 25 | 1012.9 |
| 20260506181514 | 64 | 327 | 4.0 | 10.0 | 0.00 | 0.00 | 0.00 | 26 | 1013.3 |
| 20260506180019 | 64 | 319 | 3.0 | 9.0 | 0.00 | 0.00 | 0.00 | 27 | 1013.2 |
| 20260506174516 | 64 | 251 | 3.0 | 10.0 | 0.00 | 0.00 | 0.00 | 28 | 1013.2 |
| 20260506173004 | 61 | 275 | 2.0 | 10.0 | 0.00 | 0.00 | 0.00 | 29 | 1013.3 |
| 20260506171501 | 61 | 312 | 2.0 | 7.0 | 0.00 | 0.00 | 0.00 | 30 | 1013.2 |
| 20260506170100 | 62 | 283 | 1.0 | 5.0 | 0.00 | 0.00 | 0.00 | 32 | 1013.3 |
| 20260506164553 | 60 | 262 | 2.0 | 7.0 | 0.00 | 0.00 | 0.00 | 33 | 1013.2 |
| 20260506163051 | 59 | 297 | 0.0 | 5.0 | 0.00 | 0.00 | 0.00 | 34 | 1013.1 |
| 20260506161549 | 59 | 268 | 2.0 | 5.0 | 0.00 | 0.00 | 0.00 | 36 | 1013.0 |
| 20260506160058 | 58 | 258 | 0.0 | 5.0 | 0.00 | 0.00 | 0.00 | 37 | 1013.2 |
| 20260506154541 | 57 | 328 | 1.0 | 6.0 | 0.00 | 0.00 | 0.00 | 38 | 1013.1 |
| 20260506153039 | 56 | 171 | 2.0 | 6.0 | 0.00 | 0.00 | 0.00 | 39 | 1013.0 |
| 20260506151541 | 56 | 259 | 1.0 | 5.0 | 0.00 | 0.00 | 0.00 | 41 | 1013.0 |
| 20260506150131 | 55 | 198 | 1.0 | 3.0 | 0.00 | 0.00 | 0.00 | 42 | 1013.2 |
| 20260506144528 | 54 | 160 | 1.0 | 4.0 | 0.00 | 0.00 | 0.00 | 42 | 1013.0 |
| 20260506143022 | 52 | 228 | 1.0 | 3.0 | 0.00 | 0.00 | 0.00 | 43 | 1012.9 |
| 20260506141518 | 52 | 281 | 0.0 | 4.0 | 0.00 | 0.00 | 0.00 | 43 | 1012.9 |
| 20260506140018 | 52 | 281 | 0.0 | 1.0 | 0.00 | 0.00 | 0.00 | 44 | 1012.8 |
| 20260506134511 | 51 | 110 | 0.0 | 1.0 | 0.00 | 0.00 | 0.00 | 44 | 1012.7 |
| 20260506133005 | 49 | 264 | 0.0 | 1.0 | 0.00 | 0.00 | 0.00 | 44 | 1012.7 |
| 20260506131617 | 45 | 264 | 0.0 | 0.0 | 0.00 | 0.00 | 0.00 | 43 | 1012.4 |
| 20260506130057 | 42 | 28 | 0.0 | 2.0 | 0.00 | 0.00 | 0.00 | 43 | 1012.0 |
| 20260506124552 | 44 | 281 | 0.0 | 3.0 | 0.00 | 0.00 | 0.00 | 42 | 1012.0 |
| 20260506123052 | 44 | 278 | 0.0 | 2.0 | 0.00 | 0.00 | 0.00 | 42 | 1011.8 |
| 20260506121547 | 43 | 274 | 0.0 | 2.0 | 0.00 | 0.00 | 0.00 | 41 | 1011.6 |
| 20260506120048 | 43 | 275 | 0.0 | 2.0 | 0.00 | 0.00 | 0.00 | 41 | 1011.4 |
| 20260506114543 | 44 | 266 | 0.0 | 3.0 | 0.00 | 0.00 | 0.00 | 40 | 1011.4 |
| 20260506113037 | 44 | 286 | 1.0 | 4.0 | 0.00 | 0.00 | 0.00 | 40 | 1011.5 |
| 20260506111534 | 44 | 255 | 1.0 | 4.0 | 0.00 | 0.00 | 0.00 | 40 | 1011.4 |
| 20260506110034 | 45 | 275 | 0.0 | 6.0 | 0.00 | 0.00 | 0.00 | 39 | 1011.4 |
| 20260506104531 | 45 | 268 | 1.0 | 4.0 | 0.00 | 0.00 | 0.00 | 39 | 1011.3 |
| 20260506103025 | 45 | 272 | 1.0 | 4.0 | 0.00 | 0.00 | 0.00 | 38 | 1011.2 |
| 20260506101521 | 44 | 247 | 1.0 | 6.0 | 0.00 | 0.00 | 0.00 | 38 | 1011.1 |
| 20260506100023 | 44 | 243 | 0.0 | 3.0 | 0.00 | 0.00 | 0.00 | 38 | 1011.0 |
| 20260506094514 | 44 | 238 | 1.0 | 4.0 | 0.00 | 0.00 | 0.00 | 37 | 1011.0 |
| 20260506093010 | 45 | 287 | 0.0 | 3.0 | 0.00 | 0.00 | 0.00 | 37 | 1011.0 |
| 20260506091508 | 45 | 274 | 1.0 | 5.0 | 0.00 | 0.00 | 0.00 | 37 | 1011.0 |
| 20260506090004 | 45 | 276 | 1.0 | 4.0 | 0.00 | 0.00 | 0.00 | 36 | 1010.9 |
| 20260506084503 | 46 | 257 | 1.0 | 4.0 | 0.00 | 0.00 | 0.00 | 36 | 1010.9 |
| 20260506083058 | 45 | 246 | 1.0 | 4.0 | 0.00 | 0.00 | 0.00 | 36 | 1010.9 |
| 20260506081555 | 45 | 251 | 0.0 | 4.0 | 0.00 | 0.00 | 0.00 | 35 | 1010.9 |
| 20260506073041 | 45 | 233 | 0.0 | 3.0 | 0.00 | 0.00 | 0.00 | 34 | 1010.9 |
| 20260506071538 | 46 | 260 | 1.0 | 4.0 | 0.00 | 0.00 | 0.00 | 34 | 1010.8 |
| 20260506061524 | 47 | 266 | 0.0 | 4.0 | 0.00 | 0.00 | 0.00 | 32 | 1010.2 |
| 20260506044511 | 47 | 262 | 0.0 | 1.0 | 0.00 | 0.00 | 0.00 | 29 | 1009.9 |
| 20260506043003 | 48 | 243 | 0.0 | 2.0 | 0.00 | 0.00 | 0.00 | 29 | 1009.8 |
| 20260506041605 | 49 | 243 | 0.0 | 3.0 | 0.00 | 0.00 | 0.00 | 29 | 1009.5 |
| 20260506040107 | 49 | 246 | 1.0 | 3.0 | 0.00 | 0.00 | 0.00 | 28 | 1009.3 |
| 20260506034548 | 49 | 252 | 1.0 | 5.0 | 0.00 | 0.00 | 0.00 | 28 | 1009.0 |
| 20260506033043 | 50 | 264 | 1.0 | 7.0 | 0.00 | 0.00 | 0.00 | 28 | 1008.6 |
| 20260506031539 | 50 | 246 | 2.0 | 5.0 | 0.00 | 0.00 | 0.00 | 27 | 1008.3 |
| 20260506030055 | 50 | 242 | 1.0 | 7.0 | 0.00 | 0.00 | 0.00 | 27 | 1008.0 |
| 20260506024534 | 51 | 243 | 2.0 | 5.0 | 0.00 | 0.00 | 0.00 | 27 | 1007.8 |
| 20260506023027 | 51 | 276 | 2.0 | 8.0 | 0.00 | 0.00 | 0.00 | 26 | 1007.5 |
| 20260506021523 | 52 | 278 | 3.0 | 7.0 | 0.00 | 0.00 | 0.00 | 26 | 1007.1 |
| 20260506020021 | 53 | 269 | 5.0 | 10.0 | 0.00 | 0.00 | 0.00 | 26 | 1006.8 |
| 20260506014518 | 55 | 282 | 5.0 | 11.0 | 0.00 | 0.00 | 0.00 | 26 | 1006.6 |
| 20260506013016 | 56 | 248 | 3.0 | 13.0 | 0.00 | 0.00 | 0.00 | 26 | 1006.5 |
| 20260506011522 | 57 | 235 | 5.0 | 12.0 | 0.00 | 0.00 | 0.00 | 26 | 1006.3 |
| 20260506010013 | 57 | 290 | 5.0 | 13.0 | 0.00 | 0.00 | 0.00 | 26 | 1006.1 |
| 20260506004524 | 58 | 228 | 7.0 | 12.0 | 0.00 | 0.00 | 0.00 | 26 | 1005.9 |